TimeEST,TemperatureF,Dew PointF,Humidity,Sea Level PressureIn,VisibilityMPH,Wind Direction,Wind SpeedMPH,Gust SpeedMPH,PrecipitationIn,Events,Conditions,WindDirDegrees,DateUTC
12:56 AM,34.0,25.0,70,29.89,10.0,WSW,6.9,-,N/A,,Partly Cloudy,250,2013-02-13 05:56:00
1:56 AM,32.0,24.1,73,29.91,10.0,West,4.6,-,N/A,,Scattered Clouds,260,2013-02-13 06:56:00
2:56 AM,33.1,25.0,72,29.91,10.0,WNW,5.8,-,N/A,,Overcast,290,2013-02-13 07:56:00
3:56 AM,32.0,24.1,73,29.91,10.0,WNW,4.6,-,N/A,,Scattered Clouds,300,2013-02-13 08:56:00
4:56 AM,30.9,21.9,69,29.90,10.0,NW,6.9,-,N/A,,Clear,320,2013-02-13 09:56:00
5:56 AM,30.9,21.9,69,29.88,10.0,NW,5.8,-,N/A,,Clear,310,2013-02-13 10:56:00
6:56 AM,28.9,21.9,75,29.89,8.0,SW,3.5,-,N/A,,Clear,220,2013-02-13 11:56:00
7:56 AM,30.0,21.9,72,29.90,9.0,West,4.6,-,N/A,,Clear,280,2013-02-13 12:56:00
8:56 AM,35.1,23.0,61,29.90,10.0,West,5.8,-,N/A,,Clear,280,2013-02-13 13:56:00
9:56 AM,37.0,23.0,57,29.87,10.0,WNW,8.1,-,N/A,,Clear,300,2013-02-13 14:56:00
10:56 AM,37.9,23.0,55,29.86,10.0,NW,6.9,-,N/A,,Clear,310,2013-02-13 15:56:00
11:56 AM,37.0,28.0,70,29.87,10.0,SSW,12.7,-,N/A,,Clear,200,2013-02-13 16:56:00
12:56 PM,37.0,25.0,62,29.84,10.0,SW,10.4,-,N/A,,Clear,220,2013-02-13 17:56:00
1:56 PM,37.9,23.0,55,29.81,10.0,SW,9.2,-,N/A,,Clear,230,2013-02-13 18:56:00
2:56 PM,37.9,25.0,60,29.77,10.0,SW,4.6,-,N/A,,Clear,220,2013-02-13 19:56:00
3:56 PM,37.0,27.0,67,29.77,10.0,SW,9.2,-,N/A,,Clear,220,2013-02-13 20:56:00
4:56 PM,37.0,27.0,67,29.76,10.0,SW,5.8,-,N/A,,Clear,220,2013-02-13 21:56:00
5:56 PM,36.0,28.0,73,29.74,10.0,Calm,Calm,-,N/A,,Clear,0,2013-02-13 22:56:00
6:56 PM,35.1,30.0,82,29.73,10.0,SE,3.5,-,N/A,,Partly Cloudy,140,2013-02-13 23:56:00
7:56 PM,35.1,28.0,76,29.71,9.0,Calm,Calm,-,N/A,,Mostly Cloudy,0,2013-02-14 00:56:00
8:56 PM,34.0,28.0,79,29.71,9.0,Calm,Calm,-,N/A,,Overcast,0,2013-02-14 01:56:00
9:56 PM,34.0,28.0,79,29.70,8.0,NNE,3.5,-,N/A,,Overcast,20,2013-02-14 02:56:00
10:56 PM,34.0,28.0,79,29.67,9.0,North,5.8,-,N/A,,Overcast,350,2013-02-14 03:56:00
11:56 PM,34.0,28.9,82,29.72,9.0,NNW,5.8,-,N/A,,Overcast,330,2013-02-14 04:56:00